OpenBCM V2.0.3 (Linux)

Packet Radio Mailbox

IZ3LSV

[San Dona' di P. JN]

 Login: GUEST





  
LU9DCE > KEPS     01.01.18 18:36l 253 Lines 12546 Bytes #999 (0) @ LUNET
BID : 28490_LU9DCE
Read: GUEST
Subj: SAT TLE OF 1
Path: IZ3LSV<IQ2LB<IQ5KG<IK1NHL<CX2SA<N0KFQ<LU4ECL<LU1HVK<LU3DVN<LU9DCE
Sent: 180101/1601Z @:LU9DCE.TOR.BA.ARG.SOAM #:28490 [TORTUGUITAS] FBB7.0.8-beta
From: LU9DCE@LU9DCE.TOR.BA.ARG.SOAM
To  : KEPS@LUNET


            __    _  _  ___  ____   ___  ____    ____  ____  ____
           (  )  / )( \/ _ \(    \ / __)(  __)  (  _ \(  _ \/ ___)
           / (_/\) \/ (\__  )) D (( (__  ) _)    ) _ ( ) _ (\___ \
           \____/\____/(___/(____/ \___)(____)  (____/(____/(____/
               ESTACION DE PACKET RADIO - BUENOS AIRES (GF05OM)
                   BOLETINES INFORMATIVOS PROGRAMADOS (BIP)
                    LU9DCE@GMX.COM - RF 147070 @ 1200 BAUD
                        https://lu9dce.wordpress.com/
                      telnet lu9dce.dynv6.net port 6300

+------------------------------------------------------------------------------+
OSCAR 7
1 07530U 74089B   18001.55756157 -.00000052  00000-0 -45624-4 0  9998
2 07530 101.6628 331.5476 0011898 299.1916 170.9974 12.53630318973710
OSCAR 11 (UoSAT 2)
1 14781U 84021B   18001.14013574  .00000094  00000-0  17843-4 0  9991
2 14781  97.6721  44.2736 0007034 271.1515  88.8893 14.82970209819685
OSCAR 19 (LUSAT)
1 20442U 90005G   18001.25147962 -.00000019 +00000-0 +93122-5 0  9995
2 20442 098.5951 300.9132 0010676 285.0258 074.9744 14.32882810459920
KITSAT B
1 22825U 93061C   17365.92609883 -.00000008 +00000-0 +14566-4 0  9990
2 22825 098.8406 334.2159 0009375 111.7124 248.5057 14.30018095265391
POSAT 1
1 22826U 93061D   17365.91164101 -.00000001 +00000-0 +17421-4 0  9995
2 22826 098.8348 334.2597 0009957 102.7534 257.4761 14.30348627265594
RADIO ROSTO
1 23439U 94085A   18001.17010670 -.00000030 +00000-0 +35154-3 0  9994
2 23439 064.8163 258.9520 0162605 211.6622 305.7834 11.27566248947734
JAS 2
1 24278U 96046B   18001.18843806 -.00000024 +00000-0 +11179-4 0  9996
2 24278 098.5322 222.8031 0350291 183.9771 175.8569 13.53080697055405
TECHSAT 1B
1 25397U 98043D   18001.25190259 -.00000022 +00000-0 +92958-5 0  9996
2 25397 098.6330 304.6100 0002101 118.4162 241.7228 14.23637091011754
ISS (ZARYA)
1 25544U 98067A   18001.55000006  .00001296  00000-0  26711-4 0  9995
2 25544  51.6401 129.4440 0002865 323.8849 133.1357 15.54239687 92601
PCSAT
1 26931U 01043C   18001.25435802 -.00000025 +00000-0 +22084-4 0  9996
2 26931 067.0520 300.1434 0005200 274.1852 085.8655 14.30489150848602
SAUDISAT 1C
1 27607U 02058C   18001.26927132 +.00000037 +00000-0 +25918-4 0  9998
2 27607 064.5547 240.2188 0044842 010.9174 349.2890 14.75408406808206
CUTE-1
1 27844U 03031E   18001.49082480  .00000067  00000-0  49774-4 0  9995
2 27844  98.6884  12.5981 0010585 130.2983 229.9121 14.22086135752508
CUBESAT XI 4
1 27848U 03031J   18001.54471946  .00000044  00000-0  39897-4 0  9994
2 27848  98.6974  12.9901 0010359 139.2297 220.9658 14.21693987752384
MOZHAYETS 4
1 27939U 03042A   18001.51040809  .00000098  00000-0  26099-4 0  9993
2 27939  97.9650 145.2147 0012052 321.6324 112.9706 14.66645031762381
CUBESAT XI 5
1 28895U 05043F   17365.97661833 +.00000152 +00000-0 +38041-4 0  9997
2 28895 097.8849 159.4452 0015784 235.4300 124.5414 14.63492961649185
CUTE-1.7+APD II
1 32785U 08021C   17365.88376773 +.00000272 +00000-0 +35193-4 0  9993
2 32785 097.5543 020.9968 0011975 228.9307 131.0876 14.88038185524225
DELFI C3
1 32789U 08021G   18001.39094247  .00001164  00000-0  84714-4 0  9998
2 32789  97.5352  60.2655 0013551 142.3530 217.8648 15.05638837526688
SEEDS
1 32791U 08021J   17365.63904486  .00000309  00000-0  37070-4 0  9998
2 32791  97.5476  25.7089 0012654 210.8546 149.1930 14.90433989524555
YUBELEINY
1 32953U 08025A   18001.35599607  .00000006  00000-0 -25862-4 0  9995
2 32953  82.5038 116.4387 0019141 210.8426 149.1531 12.43080769436040
PRISM (HITOMI)
1 33493U 09002B   18001.50225051  .00000268  00000-0  29503-4 0  9992
2 33493  98.1452 257.0506 0015698 143.2075 217.0231 14.96017985485428
KKS-1 (KISEKI)
1 33499U 09002H   18001.53757857  .00000141  00000-0  28826-4 0  9992
2 33499  98.3453 177.9672 0010431 101.9482 258.2896 14.75280144480609
SWISSCUBE
1 35932U 09051B   17365.97762129  .00000152  00000-0  45343-4 0  9993
2 35932  98.5208 148.3651 0007671  12.1883 347.9498 14.56106131439107
BEESAT
1 35933U 09051C   18001.36065027  .00000129  00000-0  40193-4 0  9990
2 35933  98.5248 150.1955 0006160  26.4479 333.7032 14.56215635439265
ITUPSAT 1
1 35935U 09051E   18001.18402656  .00000099  00000-0  33947-4 0  9990
2 35935  98.5359 150.2696 0008343  18.5771 341.5728 14.55399255439039
XIWANG-1 (HOPE-1)
1 36122U 09072B   18001.18149355 -.00000022 +00000-0 +53209-4 0  9996
2 36122 100.0859 023.5663 0007974 135.0607 225.1154 13.16342821386573
TISAT 1
1 36799U 10035E   18001.25038081 +.00000493 +00000-0 +56340-4 0  9998
2 36799 098.0837 133.3165 0013088 041.7104 318.5108 14.90656253405084
JUGNU
1 37839U 11058B   18001.30229898 +.00000309 +00000-0 +22935-4 0  9993
2 37839 019.9625 329.2002 0018919 206.5722 302.3703 14.12605536321630
SRMSAT
1 37841U 11058D   18001.28527072 +.00000299 +00000-0 +19143-4 0  9993
2 37841 019.9734 015.0623 0012060 097.2948 004.3917 14.10595352321198
M-CUBED/EXP-1 PRIME
1 37855U 11061F   18001.11554010 +.00000708 +00000-0 +44749-4 0  9991
2 37855 101.7206 338.1801 0177880 216.4398 142.4599 15.03955814336068
HORYU 2
1 38340U 12025D   18001.52466826  .00000256  00000-0  45778-4 0  9995
2 38340  98.3750  17.4457 0012093  26.8852 333.2980 14.75476902302532
STRAND 1
1 39090U 13009E   18001.25640889 +.00000054 +00000-0 +34375-4 0  9991
2 39090 098.5343 209.6535 0010290 074.5435 285.6886 14.35004594253867
BEESAT 3
1 39134U 13015E   18001.22871982 +.00001414 +00000-0 +76913-4 0  9999
2 39134 064.8643 306.7890 0029575 232.2997 127.5448 15.18681699259166
SOMP
1 39135U 13015F   18001.24563792 +.00001410 +00000-0 +81878-4 0  9991
2 39135 064.8698 317.9627 0030518 256.2982 103.4745 15.16287303258948
BEESAT 2
1 39136U 13015G   18001.22363601  .00001264  00000-0  75460-4 0  9994
2 39136  64.8705 320.3783 0032116 254.5847 105.1729 15.15774501259285
CUBEBUG 1
1 39153U 13018D   18001.22073608  .00000243  00000-0  38835-4 0  9992
2 39153  97.9829  97.4569 0018194 125.0428 235.2494 14.80317542252892
ZACUBE
1 39417U 13066B   18001.15098795 +.00000279 +00000-0 +41802-4 0  9991
2 39417 097.6067 038.5407 0058695 343.5771 016.3539 14.80852295222075
TRITON 1
1 39427U 13066M   18001.26358673 +.00000249 +00000-0 +47386-4 0  9998
2 39427 097.6362 008.3255 0115551 074.4130 286.9795 14.67590298219908
GOMX 1
1 39430U 13066Q   18001.45043736  .00000214  00000-0  47316-4 0  9999
2 39430  97.6797 350.5255 0152613 136.5586 224.7760 14.58998183218840
HUMSAT D
1 39433U 13066T   18001.22359191 +.00000434 +00000-0 +48329-4 0  9991
2 39433 097.6285 063.2457 0029557 278.6687 081.1184 14.91705655222350
50 SAT
1 39436U 13066W   18001.27777863  .00058082  00000-0  89171-3 0  9990
2 39436  97.7125 124.0397 0005580  82.4376 277.7510 15.54081648227217
CUBEBUG 2
1 39440U 13066AA  18001.53404955  .00000285  00000-0  46816-4 0  9995
2 39440  97.6119  26.5881 0080986  17.7223 342.6783 14.75590124221341
FUNCUBE 1
1 39444U 13066AE  18001.09850102 +.00000327 +00000-0 +47058-4 0  9995
2 39444 097.6080 039.8015 0057729 339.7365 020.1558 14.81613500220327
UWE-3
1 39446U 13066AG  18001.02978317 +.00000279 +00000-0 +43953-4 0  9995
2 39446 097.6081 031.9250 0070279 002.0513 358.0973 14.78122928219837
SPROUT
1 39770U 14029E   18001.48071229  .00000869  00000-0  10410-3 0  9997
2 39770  97.8753 104.0044 0010033  43.9327 316.2675 14.86612707195596
UNISAT 6
1 40012U 14033C   18001.26348599 +.00000238 +00000-0 +43156-4 0  9990
2 40012 097.8307 243.4729 0059054 018.0925 342.2367 14.73744810190110
DUCHIFAT 1
1 40021U 14033M   18001.20383805 +.00000434 +00000-0 +50660-4 0  9999
2 40021 097.9173 279.6230 0013479 014.9473 345.2140 14.90156262192081
QB50P1
1 40025U 14033R   18001.31832174  .00000330  00000-0  41450-4 0  9995
2 40025  97.9090 277.0263 0013049  20.0541 340.1186 14.88607616191969
CHUBUSAT 1
1 40300U 14070C   18001.16257733  .00000818  00000-0  39422-4 0  9994
2 40300  97.3812  82.3219 0021736 125.1560 290.6267 15.21322385174885
NUDT-PHONESAT
1 40900U 15049B   18001.26457052 +.00002272 +00000-0 +10668-3 0  9990
2 40900 097.4419 011.5248 0012084 251.5301 108.4621 15.20607460126543
ZDPS 2A
1 40901U 15049C   18001.51733087  .00001039  00000-0  56247-4 0  9998
2 40901  97.4583  10.5130 0012223 255.7475 104.2401 15.16775814126395
ZDPS 2B
1 40902U 15049D   18001.27131346 +.00000963 +00000-0 +52687-4 0  9991
2 40902 097.4469 008.5780 0012302 253.3998 106.5884 15.16586967126343
XW-2A
1 40903U 15049E   18001.52782446  .00002178  00000-0  56917-4 0  9993
2 40903  97.4035  34.6072 0012729 271.9106  88.0682 15.39843090128156
KAITUO 1A
1 40904U 15049F   18001.50079193  .00000530  00000-0  32037-4 0  9997
2 40904  97.4566   8.2498 0013174 255.7707 222.0805 15.14832405126265
OBJECT G
1 40905U 15049G   18001.51974121  .00000477  00000-0  29980-4 0  9997
2 40905  97.4547   6.6284 0014394 245.1513 114.8222 15.13817933126206
XW-2C
1 40906U 15049H   18001.48787921  .00000755  00000-0  43934-4 0  9998
2 40906  97.4573   8.0931 0013608 245.3985 114.5830 15.14955783126257
XW-2D
1 40907U 15049J   18001.52201367  .00000826  00000-0  47584-4 0  9993
2 40907  97.4545   7.8470 0013005 242.8587 117.1319 15.15089294126261
LILACSAT 2
1 40908U 15049K   18001.26719634 +.00000417 +00000-0 +26969-4 0  9996
2 40908 097.4651 007.1635 0014630 244.2236 115.7486 15.13370519126123
XW-2F
1 40910U 15049M   18001.52928680  .00001243  00000-0  67761-4 0  9994
2 40910  97.4556   8.8706 0013799 239.2932 120.6942 15.16167220126194
XW-2B
1 40911U 15049N   18001.53371962  .00000812  00000-0  46906-4 0  9990
2 40911  97.4584   8.3290 0012915 243.3237 116.6673 15.15039820126168
